Time,TemperatureF,DewpointF,PressureIn,WindDirection,WindDirectionDegrees,WindSpeedMPH,WindSpeedGustMPH,Humidity,HourlyPrecipIn,Conditions,Clouds,dailyrainin,SoftwareType,DateUTC
2018-04-23 00:05:00,75.2,71.0,30.06,SE,131,6.0,-999.0,87,-99.99,,,0.00,weatherlink.com 1.10,2018-04-23 04:05:00,
2018-04-23 00:19:00,75.2,71.0,30.06,SSE,151,7.0,-999.0,87,-99.99,,,0.00,weatherlink.com 1.10,2018-04-23 04:19:00,
2018-04-23 00:33:00,75.3,71.0,30.05,SSE,153,9.0,-999.0,87,-99.99,,,0.00,weatherlink.com 1.10,2018-04-23 04:33:00,
2018-04-23 00:48:00,75.4,71.0,30.05,SE,139,4.0,-999.0,87,-99.99,,,0.00,weatherlink.com 1.10,2018-04-23 04:48:00,
2018-04-23 01:02:00,75.5,72.0,30.04,SE,138,5.0,-999.0,88,-99.99,,,0.00,weatherlink.com 1.10,2018-04-23 05:02:00,
2018-04-23 01:16:00,75.5,72.0,30.03,SE,127,10.0,-999.0,88,-99.99,,,0.00,weatherlink.com 1.10,2018-04-23 05:16:00,
2018-04-23 01:30:00,74.9,71.0,30.03,ESE,119,10.0,-999.0,88,-99.99,,,0.00,weatherlink.com 1.10,2018-04-23 05:30:00,
2018-04-23 01:45:00,74.9,71.0,30.03,ESE,110,10.0,-999.0,89,-99.99,,,0.00,weatherlink.com 1.10,2018-04-23 05:45:00,
2018-04-23 01:59:00,74.4,71.0,30.02,SE,127,7.0,-999.0,88,-99.99,,,0.00,weatherlink.com 1.10,2018-04-23 05:59:00,
2018-04-23 02:14:00,74.6,71.0,30.01,SE,127,7.0,-999.0,88,-99.99,,,0.00,weatherlink.com 1.10,2018-04-23 06:14:00,
2018-04-23 02:28:00,74.5,71.0,30.01,SE,125,8.0,-999.0,88,-99.99,,,0.00,weatherlink.com 1.10,2018-04-23 06:28:00,
2018-04-23 02:42:00,74.1,70.0,30.00,ESE,106,9.0,-999.0,88,-99.99,,,0.00,weatherlink.com 1.10,2018-04-23 06:42:00,
2018-04-23 02:56:00,73.8,70.0,30.00,ESE,108,12.0,-999.0,88,-99.99,,,0.00,weatherlink.com 1.10,2018-04-23 06:56:00,
2018-04-23 03:11:00,73.4,70.0,29.99,SE,127,11.0,-999.0,88,-99.99,,,0.00,weatherlink.com 1.10,2018-04-23 07:11:00,
2018-04-23 03:25:00,73.5,70.0,29.98,ESE,117,10.0,-999.0,89,-99.99,,,0.00,weatherlink.com 1.10,2018-04-23 07:25:00,
2018-04-23 03:39:00,73.5,70.0,29.98,SE,135,11.0,-999.0,88,-99.99,,,0.00,weatherlink.com 1.10,2018-04-23 07:39:00,
2018-04-23 03:54:00,73.8,70.0,29.98,ESE,120,8.0,-999.0,88,-99.99,,,0.00,weatherlink.com 1.10,2018-04-23 07:54:00,
2018-04-23 04:08:00,74.3,71.0,29.98,SE,133,9.0,-999.0,89,-99.99,,,0.00,weatherlink.com 1.10,2018-04-23 08:08:00,
2018-04-23 04:22:00,74.6,71.0,29.99,SE,126,12.0,-999.0,89,-99.99,,,0.00,weatherlink.com 1.10,2018-04-23 08:22:00,
2018-04-23 04:36:00,74.3,71.0,29.98,ESE,120,7.0,-999.0,89,-99.99,,,0.00,weatherlink.com 1.10,2018-04-23 08:36:00,
2018-04-23 04:51:00,74.1,71.0,29.99,ESE,108,8.0,-999.0,90,-99.99,,,0.00,weatherlink.com 1.10,2018-04-23 08:51:00,
2018-04-23 05:05:00,74.0,71.0,29.99,ESE,116,10.0,-999.0,90,-99.99,,,0.01,weatherlink.com 1.10,2018-04-23 09:05:00,
2018-04-23 05:20:00,74.2,71.0,30.00,SSE,148,6.0,-999.0,90,-99.99,,,0.01,weatherlink.com 1.10,2018-04-23 09:20:00,
2018-04-23 05:34:00,74.3,71.0,30.00,SE,140,3.0,-999.0,90,-99.99,,,0.01,weatherlink.com 1.10,2018-04-23 09:34:00,
2018-04-23 05:48:00,74.3,72.0,29.99,SE,139,5.0,-999.0,91,-99.99,,,0.01,weatherlink.com 1.10,2018-04-23 09:48:00,
2018-04-23 06:03:00,74.4,72.0,29.98,SE,143,5.0,-999.0,91,-99.99,,,0.01,weatherlink.com 1.10,2018-04-23 10:03:00,
2018-04-23 06:17:00,74.5,72.0,29.99,SE,127,4.0,-999.0,91,-99.99,,,0.01,weatherlink.com 1.10,2018-04-23 10:17:00,
2018-04-23 06:31:00,74.5,72.0,30.00,SSE,150,4.0,-999.0,91,-99.99,,,0.01,weatherlink.com 1.10,2018-04-23 10:31:00,
2018-04-23 06:45:00,74.3,72.0,30.00,SSE,163,3.0,-999.0,91,-99.99,,,0.01,weatherlink.com 1.10,2018-04-23 10:45:00,
2018-04-23 07:00:00,74.3,72.0,30.00,SSE,150,3.0,-999.0,91,-99.99,,,0.01,weatherlink.com 1.10,2018-04-23 11:00:00,
2018-04-23 07:14:00,74.6,71.0,30.00,SE,134,5.0,-999.0,90,-99.99,,,0.01,weatherlink.com 1.10,2018-04-23 11:14:00,
2018-04-23 07:37:00,75.2,72.0,30.01,SSE,160,3.0,-999.0,90,-99.99,,,0.01,weatherlink.com 1.10,2018-04-23 11:37:00,
2018-04-23 07:43:00,75.7,72.0,30.01,SE,145,4.0,-999.0,89,-99.99,,,0.01,weatherlink.com 1.10,2018-04-23 11:43:00,
2018-04-23 07:57:00,75.7,72.0,30.01,SE,134,4.0,-999.0,89,-99.99,,,0.01,weatherlink.com 1.10,2018-04-23 11:57:00,
2018-04-23 08:12:00,75.5,72.0,30.02,South,173,4.0,-999.0,89,-99.99,,,0.01,weatherlink.com 1.10,2018-04-23 12:12:00,
2018-04-23 08:26:00,75.5,72.0,30.02,South,177,4.0,-999.0,89,-99.99,,,0.01,weatherlink.com 1.10,2018-04-23 12:26:00,
2018-04-23 08:40:00,76.5,73.0,30.02,South,170,5.0,-999.0,89,-99.99,,,0.01,weatherlink.com 1.10,2018-04-23 12:40:00,
2018-04-23 08:55:00,77.8,73.0,30.02,SSE,156,7.0,-999.0,86,-99.99,,,0.01,weatherlink.com 1.10,2018-04-23 12:55:00,
2018-04-23 09:09:00,77.4,72.0,30.02,SSE,153,10.0,-999.0,84,-99.99,,,0.01,weatherlink.com 1.10,2018-04-23 13:09:00,
2018-04-23 09:23:00,77.0,72.0,30.02,SE,134,6.0,-999.0,86,-99.99,,,0.01,weatherlink.com 1.10,2018-04-23 13:23:00,
2018-04-23 09:38:00,77.2,73.0,30.03,SSE,147,6.0,-999.0,86,-99.99,,,0.01,weatherlink.com 1.10,2018-04-23 13:38:00,
2018-04-23 09:52:00,77.5,73.0,30.03,SSE,147,6.0,-999.0,85,-99.99,,,0.01,weatherlink.com 1.10,2018-04-23 13:52:00,
2018-04-23 10:06:00,78.9,73.0,30.02,SSE,149,5.0,-999.0,83,-99.99,,,0.01,weatherlink.com 1.10,2018-04-23 14:06:00,
2018-04-23 10:21:00,78.6,73.0,30.02,ESE,117,5.0,-999.0,83,-99.99,,,0.01,weatherlink.com 1.10,2018-04-23 14:21:00,
2018-04-23 10:35:00,78.3,73.0,30.03,South,173,7.0,-999.0,84,-99.99,,,0.01,weatherlink.com 1.10,2018-04-23 14:35:00,
2018-04-23 10:49:00,78.5,73.0,30.03,SE,136,7.0,-999.0,83,-99.99,,,0.01,weatherlink.com 1.10,2018-04-23 14:49:00,
2018-04-23 11:03:00,79.0,73.0,30.03,SE,133,5.0,-999.0,82,-99.99,,,0.01,weatherlink.com 1.10,2018-04-23 15:03:00,
2018-04-23 11:18:00,79.6,74.0,30.03,SSE,150,7.0,-999.0,82,-99.99,,,0.01,weatherlink.com 1.10,2018-04-23 15:18:00,
2018-04-23 11:32:00,79.5,74.0,30.03,SE,125,7.0,-999.0,83,-99.99,,,0.01,weatherlink.com 1.10,2018-04-23 15:32:00,
2018-04-23 11:46:00,79.3,74.0,30.02,ESE,122,6.0,-999.0,83,-99.99,,,0.01,weatherlink.com 1.10,2018-04-23 15:46:00,
2018-04-23 12:01:00,79.3,74.0,30.02,SE,129,7.0,-999.0,85,-99.99,,,0.01,weatherlink.com 1.10,2018-04-23 16:01:00,
2018-04-23 12:15:00,78.9,74.0,30.02,SE,141,10.0,-999.0,84,-99.99,,,0.01,weatherlink.com 1.10,2018-04-23 16:15:00,
2018-04-23 12:29:00,78.5,74.0,30.01,SE,129,11.0,-999.0,85,-99.99,,,0.01,weatherlink.com 1.10,2018-04-23 16:29:00,
2018-04-23 12:43:00,78.6,73.0,30.00,SE,136,16.0,-999.0,84,-99.99,,,0.01,weatherlink.com 1.10,2018-04-23 16:43:00,
2018-04-23 12:58:00,78.9,74.0,30.00,SE,131,13.0,-999.0,84,-99.99,,,0.01,weatherlink.com 1.10,2018-04-23 16:58:00,
2018-04-23 13:12:00,78.6,73.0,29.99,ESE,123,9.0,-999.0,84,-99.99,,,0.01,weatherlink.com 1.10,2018-04-23 17:12:00,
2018-04-23 13:27:00,78.7,73.0,29.98,SE,133,11.0,-999.0,84,-99.99,,,0.01,weatherlink.com 1.10,2018-04-23 17:27:00,
2018-04-23 13:41:00,79.0,73.0,29.98,SE,125,10.0,-999.0,83,-99.99,,,0.01,weatherlink.com 1.10,2018-04-23 17:41:00,
2018-04-23 13:55:00,74.1,68.0,30.00,SE,144,7.0,-999.0,82,-99.99,,,0.06,weatherlink.com 1.10,2018-04-23 17:55:00,
2018-04-23 14:10:00,75.9,71.0,29.99,SE,131,9.0,-999.0,86,-99.99,,,0.07,weatherlink.com 1.10,2018-04-23 18:10:00,
2018-04-23 14:24:00,75.8,71.0,29.98,ESE,117,10.0,-999.0,85,-99.99,,,0.07,weatherlink.com 1.10,2018-04-23 18:24:00,
2018-04-23 14:38:00,76.5,72.0,29.98,ESE,120,11.0,-999.0,87,-99.99,,,0.07,weatherlink.com 1.10,2018-04-23 18:38:00,
2018-04-23 14:52:00,76.3,71.0,29.96,SE,137,9.0,-999.0,85,-99.99,,,0.07,weatherlink.com 1.10,2018-04-23 18:52:00,
2018-04-23 15:07:00,77.3,72.0,29.95,SSE,148,14.0,-999.0,83,-99.99,,,0.07,weatherlink.com 1.10,2018-04-23 19:07:00,
2018-04-23 15:21:00,77.0,71.0,29.94,SE,142,6.0,-999.0,82,-99.99,,,0.07,weatherlink.com 1.10,2018-04-23 19:21:00,
2018-04-23 15:35:00,77.2,71.0,29.94,SE,139,9.0,-999.0,82,-99.99,,,0.07,weatherlink.com 1.10,2018-04-23 19:35:00,
2018-04-23 15:50:00,77.9,73.0,29.91,ESE,106,13.0,-999.0,84,-99.99,,,0.07,weatherlink.com 1.10,2018-04-23 19:50:00,
2018-04-23 16:04:00,77.9,73.0,29.91,SSE,168,10.0,-999.0,84,-99.99,,,0.07,weatherlink.com 1.10,2018-04-23 20:04:00,
2018-04-23 16:18:00,77.2,72.0,29.92,SSE,158,15.0,-999.0,84,-99.99,,,0.07,weatherlink.com 1.10,2018-04-23 20:18:00,
2018-04-23 16:33:00,72.9,68.0,29.96,SSE,156,6.0,-999.0,86,-99.99,,,0.27,weatherlink.com 1.10,2018-04-23 20:33:00,
2018-04-23 16:47:00,72.8,70.0,29.94,SE,136,8.0,-999.0,90,-99.99,,,0.42,weatherlink.com 1.10,2018-04-23 20:47:00,
2018-04-23 17:02:00,72.8,70.0,29.93,SSE,162,9.0,-999.0,90,-99.99,,,0.43,weatherlink.com 1.10,2018-04-23 21:02:00,
2018-04-23 17:16:00,72.3,69.0,29.92,SE,144,13.0,-999.0,90,-99.99,,,0.43,weatherlink.com 1.10,2018-04-23 21:16:00,
2018-04-23 17:30:00,72.9,70.0,29.92,SE,133,12.0,-999.0,90,-99.99,,,0.43,weatherlink.com 1.10,2018-04-23 21:30:00,
2018-04-23 17:44:00,73.2,70.0,29.92,SE,137,8.0,-999.0,89,-99.99,,,0.43,weatherlink.com 1.10,2018-04-23 21:44:00,
2018-04-23 17:59:00,74.0,70.0,29.92,SE,143,6.0,-999.0,86,-99.99,,,0.43,weatherlink.com 1.10,2018-04-23 21:59:00,
2018-04-23 18:13:00,75.1,70.0,29.92,SSE,164,6.0,-999.0,84,-99.99,,,0.43,weatherlink.com 1.10,2018-04-23 22:13:00,
2018-04-23 18:28:00,75.3,70.0,29.93,SE,125,4.0,-999.0,85,-99.99,,,0.43,weatherlink.com 1.10,2018-04-23 22:28:00,
2018-04-23 18:42:00,75.5,71.0,29.93,SSE,162,7.0,-999.0,85,-99.99,,,0.43,weatherlink.com 1.10,2018-04-23 22:42:00,
2018-04-23 18:56:00,75.1,71.0,29.93,SSE,163,7.0,-999.0,86,-99.99,,,0.43,weatherlink.com 1.10,2018-04-23 22:56:00,
2018-04-23 19:11:00,74.6,70.0,29.93,SSE,153,7.0,-999.0,87,-99.99,,,0.44,weatherlink.com 1.10,2018-04-23 23:11:00,
2018-04-23 19:25:00,74.1,71.0,29.95,SE,134,5.0,-999.0,89,-99.99,,,0.45,weatherlink.com 1.10,2018-04-23 23:25:00,
2018-04-23 19:39:00,73.4,70.0,29.94,SSE,167,4.0,-999.0,90,-99.99,,,0.46,weatherlink.com 1.10,2018-04-23 23:39:00,
2018-04-23 19:53:00,73.4,70.0,29.94,SE,143,6.0,-999.0,90,-99.99,,,0.46,weatherlink.com 1.10,2018-04-23 23:53:00,
2018-04-23 20:08:00,73.1,70.0,29.94,South,170,3.0,-999.0,89,-99.99,,,0.46,weatherlink.com 1.10,2018-04-24 00:08:00,
2018-04-23 20:22:00,72.8,69.0,29.94,South,181,2.0,-999.0,89,-99.99,,,0.46,weatherlink.com 1.10,2018-04-24 00:22:00,
2018-04-23 20:37:00,72.7,69.0,29.94,South,184,3.0,-999.0,89,-99.99,,,0.46,weatherlink.com 1.10,2018-04-24 00:37:00,
2018-04-23 20:51:00,72.5,69.0,29.94,SW,219,1.0,-999.0,88,-99.99,,,0.46,weatherlink.com 1.10,2018-04-24 00:51:00,
2018-04-23 21:05:00,72.5,69.0,29.94,SE,144,3.0,-999.0,88,-99.99,,,0.46,weatherlink.com 1.10,2018-04-24 01:05:00,
2018-04-23 21:19:00,72.3,69.0,29.94,SSW,193,2.0,-999.0,88,-99.99,,,0.47,weatherlink.com 1.10,2018-04-24 01:19:00,
2018-04-23 21:34:00,72.4,69.0,29.95,SW,222,2.0,-999.0,88,-99.99,,,0.47,weatherlink.com 1.10,2018-04-24 01:34:00,
2018-04-23 21:48:00,72.4,69.0,29.95,South,184,3.0,-999.0,88,-99.99,,,0.47,weatherlink.com 1.10,2018-04-24 01:48:00,
2018-04-23 22:02:00,72.4,69.0,29.95,SSW,203,4.0,-999.0,88,-99.99,,,0.47,weatherlink.com 1.10,2018-04-24 02:02:00,
2018-04-23 22:17:00,72.3,69.0,29.96,South,172,0.0,-999.0,89,-99.99,,,0.47,weatherlink.com 1.10,2018-04-24 02:17:00,
2018-04-23 22:31:00,72.3,69.0,29.96,SW,215,2.0,-999.0,89,-99.99,,,0.47,weatherlink.com 1.10,2018-04-24 02:31:00,
2018-04-23 22:45:00,72.3,69.0,29.96,SSW,205,3.0,-999.0,89,-99.99,,,0.47,weatherlink.com 1.10,2018-04-24 02:45:00,
2018-04-23 22:59:00,72.3,69.0,29.96,SE,139,3.0,-999.0,90,-99.99,,,0.47,weatherlink.com 1.10,2018-04-24 02:59:00,